Home > Weather > United Kingdom > Leeds > Past weeks

Flag for United Kingdom Weather past 2 weeks in Leeds, England, United Kingdom

52 °F

Passing clouds.

Feels Like: 47 °F
Forecast: N/A
Wind: 14 mph from Southwest

Location: Leeds And Bradford

Current Time: Dec 1, 2015 at 8:40:17 PM

Latest Report: Dec 1, 2015 at 7:50 PM

Visibility: N/A

Pressure: 30.04 "Hg

Humidity: 88%

Dew point: 48 °F

Location of LeedsLocation

Historic Weather in Leeds — Graph


Leeds temperature yesterday

Maximum temperature yesterday: 52 °F (at 1:20 PM)
Minimum temperature yesterday: 36 °F (at 9:20 PM)
Average temperature yesterday: 40 °F

Past Weeks' High & Low Weather Summary

High54 °F (Nov 17, 3:20 PM)100% (Nov 17, 11:50 AM)30.18 "Hg (Nov 17, 11:50 AM)
Low28 °F (Nov 21, 9:20 PM)60% (Nov 21, 12:50 PM)29.15 "Hg (Nov 17, 4:50 PM)
Average42 °F89%29.74 "Hg
* Reported Nov 16 7:20 PM — Dec 1 7:20 PM, Leeds, Weather by CustomWeather, © 2015

Note: Actual official high and low records may vary slightly from our data, if they occured in-between our weather recording intervals... More about our weather records


Leeds weather history for previous 24 hours

Time TempWeatherWind HumidityBarometerVisibility
7:20 PM
Tue, Dec 1
52 °FPassing clouds.16 mph88%30.04 "HgN/A
6:50 PM52 °FPassing clouds.17 mph88%30.04 "HgN/A
6:20 PM52 °FPassing clouds.20 mph88%30.04 "HgN/A
5:50 PM52 °FLight rain. Passing clouds.16 mph94%30.04 "HgN/A
5:20 PM52 °FLight rain. Passing clouds.16 mph94%30.04 "HgN/A
4:50 PM52 °FLight rain. Passing clouds.15 mph94%30.01 "HgN/A
4:20 PM52 °FLight rain. Passing clouds.13 mph94%30.01 "HgN/A
3:50 PM52 °FPartly cloudy.12 mph94%30.01 "HgN/A
3:20 PM52 °FBroken clouds.12 mph94%30.01 "HgN/A
2:50 PM54 °FBroken clouds.16 mph88%30.01 "HgN/A
2:20 PM54 °FLight rain. Broken clouds.14 mph88%30.01 "HgN/A
1:50 PM52 °FLight rain. Broken clouds.12 mph100%30.01 "HgN/A
1:20 PM52 °FScattered showers. Broken clouds.13 mph100%30.01 "Hg4 mi
12:50 PM52 °FLight rain. Broken clouds.12 mph100%30.01 "Hg4 mi
12:20 PM52 °FSprinkles. Scattered clouds.15 mph100%29.98 "HgN/A
11:50 AM52 °FScattered clouds.16 mph94%29.98 "HgN/A
11:20 AM50 °FPartly sunny.12 mph100%29.98 "HgN/A
10:50 AM48 °FLight rain. Broken clouds.9 mph100%29.98 "HgN/A
10:20 AM41 °FDrizzle. Fog.2 mph100%29.98 "Hg1 mi
9:50 AM39 °FDrizzle. Fog.7 mph100%29.98 "Hg0 mi
9:20 AM39 °FDrizzle. Fog.8 mph100%29.98 "Hg0 mi
8:50 AM37 °FLight rain. Fog.8 mph100%30.01 "Hg0 mi
6:50 AM37 °FRain. Passing clouds.9 mph100%30.04 "Hg5 mi
6:20 AM37 °FLight rain. Passing clouds.10 mph100%30.04 "HgN/A
5:50 AM37 °FLight rain. Passing clouds.6 mph100%30.04 "HgN/A
5:20 AM37 °FLight rain. Passing clouds.3 mph100%30.04 "HgN/A
4:50 AM37 °FOvercast.6 mph100%30.04 "HgN/A
4:20 AM37 °FPassing clouds.2 mph100%30.04 "HgN/A
3:50 AM37 °FPassing clouds.2 mph100%30.07 "HgN/A
2:50 AM37 °FPassing clouds.No wind93%30.07 "HgN/A
2:20 AM36 °FClear.2 mph100%30.07 "Hg10 mi
1:50 AM36 °FClear.1 mph100%30.04 "Hg10 mi
12:50 AM36 °FClear.1 mph100%30.04 "Hg10 mi
11:50 PM
Mon, Nov 30
36 °FClear.3 mph100%30.04 "Hg10 mi
11:20 PM36 °FClear.7 mph100%30.01 "Hg10 mi
10:20 PM36 °FClear.5 mph93%29.98 "Hg10 mi
9:50 PM36 °FClear.7 mph93%29.98 "Hg10 mi
9:20 PM36 °FClear.9 mph93%29.95 "Hg10 mi
8:50 PM37 °FClear.10 mph93%29.95 "Hg10 mi
8:20 PM37 °FClear.9 mph93%29.95 "Hg10 mi
Weather by CustomWeather, © 2015

See weather overviewHow to use our weather pages